Temperature
16 17 17 17 13 11 12 13 12 12 12 13 13 12 12 12 13 13 12 12 13 13 13 13 13 14 14 14 14 14 14 15 15 15 15 15 15 15 15 15 15 15 15 15 15 15 15 15 15
16 16 17 16 11 12 13 12 12 12 12 12 12 12 11 11 11 12 12 12 12 13 13 13 13 13 13 14 14 14 14 14 14 14 14 15 15 15 15 15 15 15 15 15 15 15 15 15 15
16 16 16 10 11 12 13 12 11 11 12 12 11 11 11 11 11 11 12 12 12 13 13 13 13 13 13 13 13 13 14 14 14 14 14 14 14 14 14 14 14 15 15 15 15 14 14 15 15
16 16 14 10 11 11 11 11 10 11 12 11 11 10 10 10 11 11 12 12 12 12 12 12 13 13 13 13 13 13 13 14 14 14 14 14 14 14 14 14 14 14 14 14 14 14 14 14 14
15 15 10 9 10 10 10 10 11 10 10 10 10 9 10 10 11 11 12 12 12 12 12 12 12 12 13 13 13 13 13 13 13 13 13 14 14 14 14 14 14 14 14 14 14 14 14 14 14
15 10 9 10 10 10 9 10 10 9 9 10 10 9 9 10 10 11 11 11 11 12 12 12 12 12 12 12 13 13 13 13 13 13 13 13 13 13 14 14 14 14 14 14 14 14 14 14 14
12 8 9 9 9 10 10 10 9 8 8 9 10 9 9 10 10 10 11 11 11 11 11 11 12 12 12 12 12 12 12 12 13 13 13 13 13 13 13 13 13 14 14 14 13 14 14 14 14
12 7 8 8 9 9 9 9 9 9 8 9 9 8 9 9 10 10 10 10 11 11 11 11 11 11 11 11 12 12 12 12 12 12 12 13 13 13 13 13 13 13 13 13 13 13 13 13 13
12 7 8 8 8 9 8 8 8 8 8 8 8 8 9 9 9 10 10 10 10 10 10 11 11 11 11 11 11 11 11 12 12 12 12 12 12 12 12 12 13 13 13 13 13 13 13 13 13
10 7 8 8 8 7 7 7 7 7 7 7 7 8 8 9 9 9 10 10 10 10 10 10 10 10 10 10 10 11 11 11 11 11 11 12 12 12 12 12 12 12 12 12 13 13 12 12 13
7 7 7 7 7 7 7 7 7 7 6 7 7 8 8 8 9 9 9 9 9 9 9 9 9 10 10 10 10 10 10 10 11 11 11 11 11 11 11 11 11 12 12 12 12 12 12 12 12
6 6 6 6 7 7 6 6 6 6 7 7 7 7 8 8 8 8 8 8 8 8 8 9 9 9 9 9 9 9 10 10 10 10 10 10 11 11 11 11 11 11 11 11 12 12 12 11 12
5 5 5 6 6 6 6 5 5 5 6 7 7 7 7 7 8 8 8 8 8 8 8 8 8 8 8 8 9 9 9 9 9 9 10 10 10 10 10 10 11 11 11 11 11 11 11 11 11
5 5 5 5 5 5 5 4 4 5 6 6 6 6 6 7 7 7 7 7 7 7 7 7 8 8 8 8 8 8 8 8 8 9 9 9 10 10 10 10 10 10 10 10 11 11 11 11 11
5 4 4 4 4 4 4 4 3 5 5 5 5 6 6 6 6 6 6 7 7 7 7 7 7 7 7 7 7 8 8 8 8 8 8 9 9 9 9 9 10 10 10 10 10 10 10 10 10
4 4 4 4 4 4 5 5 4 5 5 4 5 5 5 5 6 6 6 6 6 6 6 6 6 6 7 7 7 7 7 7 7 8 8 8 8 8 9 9 9 9 10 10 10 10 10 10 10
3 4 4 4 3 3 3 4 3 4 4 4 4 4 4 5 5 5 5 5 5 5 5 6 6 6 6 6 6 6 7 7 7 7 7 8 8 8 8 8 9 9 9 9 9 9 9 9 9
4 3 4 4 3 2 2 2 2 4 3 3 4 4 4 4 4 5 5 5 5 5 5 5 5 5 5 6 6 6 6 6 7 7 7 7 7 8 8 8 8 8 8 9 9 9 9 9 9
3 3 3 3 2 2 1 1 2 3 3 2 2 3 3 4 4 4 4 4 5 5 5 5 5 5 5 5 5 6 6 6 6 6 7 7 7 7 7 7 8 7 8 8 8 8 8 8 8
3 3 2 2 2 2 1 1 1 2 2 2 2 2 2 3 3 3 3 4 4 4 4 4 4 4 4 4 5 5 5 6 6 6 6 6 6 7 7 7 7 7 7 7 7 8 8 8 8
2 2 2 2 1 1 1 2 2 1 1 1 1 2 2 2 2 2 3 3 3 4 4 4 4 4 4 4 4 4 5 5 5 6 6 6 6 6 6 6 6 6 7 7 7 7 7 7 7
2 2 2 1 1 0 1 2 2 1 0 0 1 1 1 1 2 2 2 2 3 3 3 3 3 3 3 4 4 4 4 4 5 5 5 5 5 5 6 6 6 6 6 7 7 7 7 7 7
1 1 1 0 0 -1 -1 0 1 0 0 0 -0 0 1 1 1 2 2 2 2 2 2 3 3 3 3 3 3 3 3 4 4 4 5 5 5 5 5 5 6 6 6 6 6 7 7 7 7
0 -0 -1 -2 -1 0 -0 -0 1 -0 -0 -0 -1 -0 0 1 1 1 1 2 2 2 2 2 2 3 3 3 3 3 3 3 3 4 4 4 4 5 5 5 5 5 5 6 6 6 6 6 6
-0 -0 -0 0 -1 0 -1 -1 -0 -0 -1 -1 -1 -1 -0 0 1 1 1 1 1 2 2 2 2 2 2 2 2 2 2 3 3 3 3 4 4 4 4 4 4 5 5 5 5 5 6 6 6
-1 -0 0 1 0 -0 -1 -1 -1 -1 -1 -1 -1 -1 -1 -0 0 0 0 1 1 1 1 1 1 2 2 2 2 2 2 2 2 2 3 3 3 4 4 4 4 4 4 4 5 5 5 5 5
-1 -2 -2 -2 -2 -2 -2 -3 -2 -1 -2 -2 -2 -2 -1 -1 -1 -0 0 0 1 1 1 1 1 1 1 1 1 1 1 2 2 2 2 2 3 3 3 3 3 4 4 4 4 4 5 5 5
-2 -3 -3 -2 -1 -0 -1 -2 -1 -2 -2 -2 -3 -2 -1 -1 -1 -1 -0 0 0 0 0 0 0 0 0 1 1 1 1 1 1 2 2 2 3 3 3 3 3 3 3 4 4 4 4 4 4
-3 -3 -3 -4 -3 -2 -1 -1 -2 -3 -3 -3 -3 -2 -2 -2 -2 -1 -1 -0 -0 -0 -0 -0 -0 -0 -0 0 0 0 0 0 1 1 1 2 2 2 2 2 2 3 3 3 3 3 4 4 4
-3 -4 -4 -3 -3 -4 -3 -1 -2 -4 -4 -3 -3 -2 -2 -2 -2 -2 -1 -1 -1 -1 -1 -1 -1 -1 -1 -1 -1 -0 -0 -0 0 0 1 1 2 2 2 2 2 2 2 3 3 3 3 3 4
Wind_Speed
12 7 2 4 6 5 1 2 1 0 1 1 1 3 4 3 2 2 2 4 5 3 2 2 3 5 5 6 7 8 8 8 9 9 10 10 10 10 10 10 11 12 12 12 12 13 14 14 14
5 3 5 5 5 2 3 3 2 1 1 1 3 3 3 2 2 2 3 6 6 4 4 3 4 5 5 6 7 7 7 8 8 8 9 9 9 10 10 10 10 11 11 12 12 12 13 13 13
3 4 5 5 4 5 4 2 3 0 2 2 3 3 1 1 1 1 3 5 5 5 6 5 6 5 6 6 6 6 6 7 8 8 8 8 9 9 9 9 10 10 11 11 11 12 12 12 12
4 5 6 5 3 4 2 1 2 1 2 3 3 2 1 2 1 1 3 5 5 6 7 7 7 6 6 6 6 6 6 6 7 7 7 7 8 8 8 8 9 10 10 10 11 11 11 12 12
5 5 5 2 3 2 1 1 1 2 1 1 2 1 1 3 3 3 4 5 6 7 8 7 7 7 7 7 6 6 6 6 6 6 7 7 7 7 7 8 8 8 9 9 10 10 11 11 11
5 5 4 4 5 2 1 0 2 1 1 1 2 1 1 2 4 3 4 5 6 7 9 9 8 8 7 7 7 6 5 5 5 5 5 6 6 7 7 7 8 8 8 9 9 10 10 10 10
5 5 4 5 3 3 1 1 2 2 1 1 1 2 1 2 2 2 3 5 7 8 9 9 9 8 8 7 7 6 6 5 5 5 5 6 6 6 6 6 6 7 7 8 9 9 9 10 10
4 5 3 3 4 4 0 1 1 2 2 0 2 3 3 3 2 2 4 5 6 8 9 8 9 9 9 8 7 7 7 6 5 5 5 5 5 5 6 5 5 6 7 7 8 8 9 9 9
4 4 3 5 5 3 1 1 1 1 2 1 0 1 2 1 1 3 4 5 5 6 7 7 8 9 9 8 7 7 7 7 7 5 5 5 5 5 5 5 5 5 6 6 7 7 8 9 9
4 3 5 2 3 2 1 1 0 1 1 1 1 2 2 2 3 3 2 2 3 4 4 6 6 7 8 7 7 6 5 6 6 5 5 4 4 4 4 5 5 5 5 5 6 6 7 8 7
3 4 2 0 1 1 1 1 0 2 2 4 3 2 1 1 2 2 1 0 1 1 2 4 4 5 6 6 6 6 5 5 5 5 5 4 4 3 3 4 4 5 5 4 5 5 5 6 6
3 1 0 1 1 1 0 0 1 2 5 2 3 2 2 1 2 3 2 1 1 1 2 3 4 4 5 5 5 5 5 5 4 4 4 3 3 2 2 2 3 3 3 3 4 4 5 6 6
1 1 1 1 2 1 1 2 2 4 5 2 0 1 2 2 3 3 2 2 1 0 1 2 4 3 4 4 4 5 5 4 4 3 3 2 2 1 1 1 2 3 3 3 3 4 4 4 5
1 1 1 2 2 1 1 4 2 7 3 1 2 2 3 3 3 2 2 2 1 1 1 1 2 4 4 3 3 3 3 4 3 3 3 2 2 2 1 1 1 2 3 3 3 4 3 4 4
1 2 3 2 2 1 1 5 5 6 1 2 3 3 3 3 3 3 3 3 3 3 2 1 1 3 3 2 3 3 3 3 3 3 3 2 2 2 1 1 1 1 3 3 3 4 4 3 3
3 2 2 3 1 1 1 7 4 1 2 4 5 4 4 4 4 4 4 3 3 2 2 1 1 2 2 2 3 3 3 3 3 3 3 3 2 1 1 1 0 1 3 3 3 3 3 2 2
3 1 4 4 1 1 2 7 5 1 3 5 6 5 4 4 4 4 3 3 3 3 2 2 1 1 2 2 2 3 3 3 3 3 3 3 2 1 0 1 1 0 2 3 3 3 3 3 3
3 3 4 5 3 1 4 9 10 5 5 7 7 6 5 5 5 3 3 2 2 2 2 2 2 1 2 1 1 2 2 3 3 3 3 3 3 2 0 1 1 1 1 2 3 4 3 3 4
2 3 5 5 3 3 7 11 12 8 6 8 7 5 5 6 4 2 2 2 2 1 1 1 2 2 1 0 0 1 2 2 2 3 3 3 3 2 1 1 1 1 2 2 3 4 4 3 3
2 3 5 5 2 3 6 11 10 8 6 6 6 6 6 5 3 3 2 2 2 2 2 2 2 2 2 1 2 2 2 2 2 3 3 3 3 2 1 1 1 2 2 3 2 4 3 3 4
3 4 5 5 6 2 5 8 6 4 4 3 3 4 4 4 4 3 3 2 2 2 3 3 3 3 2 1 0 1 1 1 2 2 2 4 3 2 2 2 2 2 2 3 4 4 4 4 3
4 2 3 3 3 4 1 6 7 4 5 4 4 4 4 4 3 2 3 3 3 3 3 3 3 2 2 1 1 2 2 3 4 3 3 4 4 3 2 2 2 2 2 3 4 3 3 6 5
2 1 1 2 2 3 2 4 8 2 5 6 5 5 4 3 3 3 4 4 4 3 2 3 2 3 2 1 2 2 3 3 3 3 3 3 3 3 3 3 3 3 3 3 4 4 3 5 5
1 2 2 2 2 4 5 5 7 4 5 6 5 5 4 3 3 3 3 3 3 2 2 2 3 3 2 2 2 3 3 3 3 4 3 3 3 3 3 3 3 3 3 4 4 5 5 5 5
3 3 4 5 3 6 2 4 8 5 4 4 6 5 4 2 2 3 3 4 3 2 3 3 3 3 3 2 3 3 4 4 5 5 4 4 4 4 4 3 3 3 4 4 4 5 6 6 7
1 3 4 4 5 5 2 6 7 4 4 4 3 3 3 3 3 3 4 4 3 3 4 3 3 4 3 3 4 4 4 4 4 5 5 5 5 5 5 5 4 4 4 5 4 4 6 5 6
2 2 2 3 1 4 6 7 8 3 4 4 4 4 4 4 4 4 5 4 3 3 4 3 4 4 4 4 4 4 4 4 5 5 5 5 5 5 5 5 5 4 5 5 5 5 6 6 6
1 4 3 3 2 5 6 5 5 6 6 5 5 4 5 6 6 6 6 4 3 3 3 3 3 4 5 5 4 4 5 5 6 5 6 6 6 5 5 6 5 5 5 5 5 5 6 7 6
2 2 2 2 3 3 5 6 3 4 4 5 5 5 5 6 6 7 7 5 4 3 3 3 4 4 5 5 5 5 5 5 5 5 6 6 6 6 6 6 6 6 6 6 6 7 7 8 7
2 4 5 3 4 4 4 7 3 3 4 4 5 6 6 6 6 6 6 5 4 4 4 4 5 5 5 5 5 6 6 5 5 5 6 6 6 6 6 6 7 7 7 6 7 8 8 9 9
Wind_Direction
339 344 44 55 58 57 183 240 203 350 353 1 45 101 125 125 133 162 326 353 358 354 347 21 48 58 76 82 83 87 98 105 106 104 103 102 102 101 99 96 93 90 88 87 87 88 90 92 94
334 360 52 61 96 141 251 236 206 211 186 84 50 64 76 64 35 26 345 337 354 13 23 43 54 59 72 84 84 84 96 105 109 108 107 106 104 102 101 100 96 93 92 89 89 92 91 94 97
354 43 78 79 122 181 204 204 200 302 40 72 62 45 81 25 354 338 330 340 9 25 30 38 50 57 66 73 83 85 91 103 107 108 109 109 108 105 103 102 100 98 96 93 93 96 96 94 98
58 47 57 81 183 218 201 177 172 123 45 42 92 52 18 17 336 323 2 28 44 32 33 40 49 51 56 66 74 85 86 97 108 110 112 113 112 110 107 104 101 101 100 100 97 99 99 95 98
54 74 71 70 230 237 247 269 131 113 87 23 96 120 314 357 23 47 46 46 51 30 27 38 50 48 51 53 62 75 83 88 100 112 117 113 111 112 113 110 109 105 105 107 104 104 104 99 98
53 69 104 199 231 249 247 273 119 99 112 54 111 145 232 7 28 36 46 47 45 40 30 36 41 45 48 48 48 56 75 84 88 97 107 116 111 107 111 113 117 113 112 113 111 108 109 105 101
100 101 155 182 208 254 238 101 133 139 138 227 164 148 252 349 351 31 43 42 38 40 35 32 31 35 39 44 46 47 55 72 81 84 90 95 107 113 109 109 118 119 118 118 116 113 113 110 105
111 106 121 180 194 235 219 101 110 148 207 355 128 160 245 283 326 31 45 42 38 35 33 30 28 31 32 35 46 44 44 52 65 73 79 91 94 106 108 104 113 118 120 119 118 116 116 112 108
83 88 186 205 192 216 118 93 10 17 109 63 98 178 276 308 82 59 35 29 31 29 27 24 28 26 28 33 37 46 47 48 52 58 70 83 86 95 106 100 98 105 116 121 120 117 118 114 111
77 153 210 201 180 167 114 130 190 49 34 292 324 2 30 89 110 97 58 26 17 7 11 18 26 25 27 31 31 33 42 47 47 48 57 71 82 94 104 105 102 101 101 112 118 116 118 114 108
89 168 181 22 79 117 100 320 343 154 244 226 221 231 69 93 133 141 155 203 294 327 359 8 22 30 30 25 26 24 27 37 40 41 46 59 76 88 93 96 95 97 96 97 106 105 112 114 111
98 337 195 319 6 49 216 249 324 211 232 227 205 176 166 188 204 203 211 237 301 8 349 354 8 33 30 27 25 22 20 23 20 27 42 60 59 73 84 90 93 103 112 106 107 105 108 111 116
87 261 328 345 29 9 12 265 244 254 255 274 254 142 186 216 227 235 228 221 211 282 332 337 0 17 27 28 22 21 15 18 12 17 35 61 64 68 82 95 110 115 121 121 119 114 110 109 111
101 39 334 332 336 328 272 276 263 260 259 240 218 228 225 225 235 241 264 260 264 262 264 321 359 4 19 17 12 11 14 15 19 17 12 42 77 72 74 115 115 135 139 138 141 132 122 120 115
76 22 338 317 306 290 325 294 243 254 238 250 252 251 246 247 248 244 252 257 247 252 254 274 333 2 5 9 3 4 10 15 7 10 3 17 55 80 65 94 141 166 159 145 135 123 114 111 115
48 44 310 306 354 288 168 261 264 260 194 248 260 265 264 260 251 254 260 261 250 240 246 274 326 349 350 2 355 356 1 3 360 5 2 0 7 82 85 98 285 196 165 154 152 149 139 134 136
33 259 256 286 301 315 202 254 272 263 213 247 258 260 260 271 274 274 274 272 253 230 224 243 283 313 323 348 357 352 355 351 349 357 355 350 344 316 113 209 223 221 165 166 173 165 161 159 153
231 238 258 262 291 285 253 262 276 269 243 250 259 263 259 262 265 276 287 292 284 244 223 229 264 291 318 349 2 354 358 348 350 348 339 342 341 325 305 262 229 201 173 194 175 176 174 173 164
178 220 261 268 286 277 259 269 273 273 259 255 256 258 263 266 271 277 282 303 316 303 272 261 278 279 280 250 255 244 281 298 313 331 329 329 333 320 300 299 258 222 210 207 185 174 172 177 158
213 254 271 289 306 284 278 274 267 255 247 241 239 247 259 273 294 302 306 317 309 295 269 259 263 277 263 232 230 220 242 249 268 307 322 318 318 306 289 247 240 236 219 202 188 185 181 187 176
260 228 246 270 319 323 304 287 262 265 254 257 262 255 254 249 258 277 288 298 305 292 284 272 269 271 271 280 270 321 286 280 273 291 284 313 303 293 271 260 230 237 223 212 200 193 190 190 197
262 245 251 275 311 294 330 283 274 267 276 270 275 277 267 260 253 267 285 296 287 280 283 284 270 281 278 261 205 218 241 270 274 276 272 298 298 286 273 261 234 227 228 218 212 201 201 188 197
217 340 320 281 233 295 269 235 280 297 278 276 280 279 273 265 249 262 276 282 281 281 285 287 287 285 272 235 204 216 245 260 278 282 279 282 299 288 272 260 236 223 224 221 216 210 207 197 199
185 32 26 40 78 274 234 203 276 251 250 283 286 288 286 279 272 281 289 299 295 297 307 311 309 289 270 254 226 219 243 267 276 274 270 271 277 288 278 264 243 224 221 220 217 214 207 209 200
50 70 8 349 340 254 216 226 254 259 261 269 285 292 291 287 284 300 310 315 307 320 319 312 311 306 289 267 248 237 242 247 252 251 253 262 267 274 266 267 254 240 229 225 217 215 210 207 202
200 147 169 231 253 282 277 241 256 282 297 301 298 302 316 320 310 301 306 297 297 308 311 309 309 304 298 282 268 250 245 249 255 258 253 251 254 260 267 261 255 254 237 229 220 221 216 207 207
135 168 162 151 277 278 269 281 296 298 325 335 345 351 332 321 318 313 313 300 298 303 301 295 299 304 301 289 284 267 250 256 260 258 260 255 252 261 264 261 256 254 243 227 219 223 216 208 209
123 145 106 139 236 271 283 273 272 301 313 322 326 329 330 335 329 319 313 304 300 290 299 309 297 292 295 293 279 277 263 259 257 255 258 262 259 256 258 257 254 253 247 233 221 225 214 210 215
130 124 138 161 193 217 279 277 243 260 288 295 297 310 320 323 321 316 312 310 310 315 314 312 306 304 304 300 290 282 280 273 261 257 259 260 267 258 251 251 249 247 245 233 221 224 213 210 215
178 184 162 187 244 217 247 273 284 280 305 305 305 313 321 318 317 316 316 314 318 318 316 312 307 305 301 294 290 282 280 276 271 267 264 264 262 264 256 251 247 245 242 236 225 226 220 212 213
Height
1498 1499 1501 1503 1508 1522 1525 1522 1519 1519 1519 1519 1519 1519 1521 1523 1526 1531 1527 1524 1525 1525 1526 1527 1528 1529 1530 1531 1531 1532 1532 1533 1534 1534 1535 1536 1536 1537 1538 1539 1539 1540 1540 1541 1541 1542 1542 1543 1544
1498 1500 1502 1503 1516 1527 1525 1520 1519 1518 1519 1518 1519 1520 1521 1523 1524 1525 1524 1524 1524 1525 1526 1527 1528 1529 1530 1531 1531 1532 1532 1533 1534 1534 1535 1536 1537 1537 1538 1539 1540 1540 1541 1541 1542 1543 1543 1544 1545
1498 1500 1502 1508 1520 1524 1520 1518 1518 1518 1518 1518 1520 1521 1522 1524 1524 1524 1524 1524 1524 1525 1526 1527 1528 1529 1529 1530 1531 1532 1532 1533 1534 1534 1535 1536 1537 1538 1538 1539 1540 1540 1541 1541 1542 1543 1544 1545 1545
1499 1501 1503 1514 1519 1519 1517 1517 1517 1517 1518 1519 1520 1522 1523 1525 1525 1525 1524 1524 1524 1525 1526 1526 1527 1528 1529 1529 1530 1531 1532 1533 1533 1534 1535 1536 1537 1538 1538 1539 1540 1541 1541 1542 1542 1543 1544 1545 1546
1499 1501 1511 1521 1519 1517 1517 1516 1517 1517 1518 1520 1520 1522 1523 1525 1524 1524 1524 1523 1523 1524 1525 1525 1526 1527 1527 1528 1529 1530 1531 1532 1533 1534 1535 1535 1536 1537 1538 1539 1540 1541 1541 1542 1543 1543 1544 1545 1546
1500 1503 1519 1522 1518 1516 1516 1516 1517 1518 1519 1520 1521 1522 1522 1524 1523 1523 1523 1523 1523 1523 1524 1524 1525 1526 1526 1527 1528 1529 1530 1531 1532 1533 1534 1535 1536 1536 1537 1538 1539 1540 1541 1542 1542 1543 1544 1545 1546
1502 1510 1518 1519 1519 1517 1516 1516 1517 1518 1519 1520 1521 1522 1522 1522 1523 1523 1523 1523 1523 1523 1523 1523 1524 1525 1525 1526 1526 1528 1529 1530 1531 1532 1533 1533 1534 1535 1536 1537 1538 1539 1540 1541 1542 1543 1544 1545 1546
1501 1510 1518 1520 1519 1516 1515 1515 1516 1517 1518 1520 1521 1521 1521 1521 1521 1522 1522 1522 1522 1522 1522 1522 1523 1523 1524 1524 1525 1526 1527 1528 1529 1530 1531 1532 1533 1534 1535 1536 1537 1538 1539 1540 1541 1542 1543 1544 1546
1503 1513 1518 1517 1517 1515 1515 1515 1516 1517 1518 1519 1519 1520 1521 1520 1520 1520 1520 1520 1521 1521 1521 1521 1521 1522 1523 1523 1524 1525 1526 1527 1527 1529 1530 1531 1532 1533 1534 1535 1536 1537 1538 1539 1540 1541 1543 1544 1545
1504 1515 1513 1513 1513 1513 1514 1515 1516 1517 1517 1518 1518 1518 1519 1518 1518 1518 1517 1517 1518 1518 1519 1519 1520 1520 1521 1522 1523 1523 1524 1525 1525 1526 1528 1529 1530 1531 1532 1533 1534 1535 1536 1538 1539 1540 1542 1543 1544
1506 1511 1512 1512 1512 1513 1514 1515 1515 1516 1516 1516 1516 1516 1517 1517 1516 1516 1516 1516 1516 1517 1517 1518 1519 1519 1520 1520 1521 1522 1522 1523 1523 1524 1526 1527 1528 1529 1530 1531 1533 1534 1535 1536 1538 1539 1541 1542 1543
1509 1511 1511 1512 1512 1512 1513 1514 1515 1514 1514 1514 1514 1515 1515 1514 1514 1515 1515 1515 1515 1515 1516 1516 1517 1517 1518 1519 1519 1519 1520 1521 1521 1522 1523 1525 1526 1527 1528 1529 1531 1532 1533 1535 1536 1537 1539 1541 1542
1510 1512 1512 1512 1512 1513 1513 1513 1514 1512 1512 1512 1513 1513 1513 1513 1513 1514 1514 1514 1514 1514 1514 1514 1515 1516 1516 1517 1517 1517 1518 1518 1520 1520 1521 1523 1524 1525 1526 1527 1529 1530 1531 1533 1535 1536 1537 1539 1541
1511 1511 1512 1512 1512 1512 1513 1512 1513 1508 1510 1510 1510 1510 1511 1511 1511 1512 1512 1512 1511 1512 1512 1513 1513 1514 1514 1514 1515 1515 1516 1516 1517 1518 1519 1520 1521 1523 1524 1525 1526 1528 1529 1531 1533 1534 1535 1537 1539
1511 1512 1512 1512 1511 1512 1512 1511 1509 1507 1508 1508 1508 1508 1508 1509 1509 1509 1510 1510 1510 1510 1510 1510 1511 1511 1512 1512 1513 1513 1513 1514 1515 1516 1517 1518 1519 1520 1521 1522 1524 1525 1527 1528 1530 1532 1533 1535 1537
1512 1514 1515 1512 1512 1511 1515 1510 1506 1506 1506 1505 1505 1505 1505 1505 1506 1507 1507 1508 1508 1508 1508 1508 1508 1508 1509 1510 1510 1511 1511 1512 1512 1513 1514 1515 1516 1517 1518 1520 1521 1523 1524 1526 1527 1529 1530 1532 1534
1517 1518 1515 1513 1512 1511 1512 1508 1504 1504 1504 1503 1503 1502 1502 1502 1503 1503 1504 1504 1505 1505 1505 1505 1506 1506 1506 1507 1508 1508 1509 1509 1510 1511 1512 1513 1514 1514 1515 1516 1518 1519 1521 1522 1524 1526 1528 1529 1531
1517 1518 1515 1514 1512 1512 1511 1508 1502 1502 1502 1500 1499 1499 1499 1498 1499 1500 1500 1501 1501 1502 1502 1502 1503 1503 1503 1504 1504 1505 1506 1506 1507 1508 1509 1509 1510 1511 1512 1513 1515 1516 1517 1519 1520 1522 1525 1527 1528
1514 1516 1515 1513 1511 1512 1509 1506 1500 1498 1498 1496 1495 1495 1495 1495 1496 1496 1497 1497 1498 1498 1498 1498 1499 1500 1500 1500 1500 1501 1501 1503 1504 1504 1505 1506 1507 1507 1508 1510 1511 1512 1514 1515 1517 1518 1521 1523 1525
1514 1515 1515 1512 1511 1511 1509 1503 1496 1494 1493 1492 1492 1491 1491 1491 1491 1492 1493 1494 1494 1494 1495 1495 1496 1496 1497 1497 1497 1498 1499 1499 1500 1501 1502 1503 1503 1504 1505 1506 1507 1509 1510 1511 1513 1515 1517 1519 1522
1513 1515 1514 1514 1512 1510 1510 1500 1494 1490 1490 1490 1489 1488 1488 1488 1488 1488 1489 1490 1490 1491 1491 1492 1492 1493 1494 1494 1495 1496 1496 1496 1497 1497 1497 1499 1499 1500 1501 1502 1503 1504 1506 1507 1509 1511 1512 1514 1518
1513 1512 1512 1513 1516 1515 1513 1508 1492 1490 1489 1487 1486 1486 1485 1485 1485 1485 1486 1486 1487 1487 1488 1489 1489 1490 1491 1491 1491 1491 1491 1491 1491 1492 1493 1494 1496 1496 1497 1498 1499 1500 1502 1503 1505 1507 1509 1511 1513
1514 1513 1514 1515 1517 1519 1516 1514 1494 1491 1488 1485 1484 1483 1482 1482 1483 1483 1484 1484 1484 1484 1485 1485 1486 1487 1487 1488 1488 1488 1488 1488 1488 1489 1489 1490 1491 1492 1493 1494 1495 1496 1497 1499 1500 1503 1505 1507 1509
1513 1515 1517 1519 1520 1517 1512 1513 1497 1491 1486 1483 1482 1481 1480 1480 1481 1481 1482 1481 1481 1481 1481 1482 1483 1483 1483 1484 1484 1484 1484 1484 1484 1484 1485 1486 1486 1488 1489 1489 1490 1491 1493 1495 1496 1498 1500 1502 1505
1515 1519 1522 1520 1523 1513 1510 1509 1497 1486 1483 1482 1480 1479 1478 1479 1479 1479 1478 1478 1478 1478 1478 1479 1479 1479 1480 1480 1481 1481 1481 1481 1480 1480 1481 1481 1481 1482 1483 1484 1485 1486 1488 1490 1492 1494 1495 1497 1499
1518 1518 1521 1520 1519 1514 1511 1508 1492 1485 1482 1481 1480 1478 1477 1477 1477 1477 1476 1476 1476 1476 1476 1476 1476 1476 1476 1476 1477 1477 1477 1477 1477 1477 1477 1477 1477 1478 1479 1480 1480 1481 1483 1485 1487 1488 1490 1492 1494
1518 1521 1522 1526 1527 1524 1511 1506 1492 1483 1481 1480 1479 1477 1476 1476 1475 1475 1475 1474 1474 1473 1473 1473 1473 1473 1473 1473 1473 1473 1473 1473 1472 1472 1472 1473 1473 1474 1475 1475 1475 1476 1478 1480 1481 1482 1484 1487 1488
1517 1521 1526 1525 1520 1514 1508 1506 1495 1485 1482 1480 1479 1477 1476 1475 1474 1474 1473 1472 1472 1471 1471 1471 1470 1470 1469 1469 1469 1468 1468 1468 1468 1468 1467 1467 1468 1469 1470 1470 1470 1471 1472 1474 1475 1477 1479 1481 1483
1520 1523 1523 1526 1523 1519 1512 1499 1489 1486 1482 1481 1479 1477 1476 1475 1474 1472 1471 1470 1469 1468 1468 1468 1467 1466 1465 1465 1464 1464 1463 1463 1463 1462 1463 1462 1463 1464 1464 1465 1465 1466 1467 1468 1469 1471 1473 1475 1477
1518 1520 1523 1523 1523 1526 1520 1502 1485 1484 1482 1481 1479 1477 1475 1474 1473 1471 1469 1468 1466 1465 1465 1464 1464 1462 1461 1460 1460 1459 1458 1457 1457 1457 1457 1457 1457 1458 1459 1460 1460 1460 1461 1462 1463 1465 1467 1468 1470